This is the latest recevied weather packets stored in our database for station/object AC8JV. If no packets are shown the sender has not sent any weather packets the latest 10 day(s).
| Time | Temp. | Humidity | Pressure | Rain* | Wind** | Luminosity | Snow |
|---|---|---|---|---|---|---|---|
| 1777837805 | 12.22° C | 60% | 1011.4 hPa | 0 mm | - | - | - |
| 1777837211 | 12.78° C | 57% | 1011.5 hPa | 0 mm | - | - | - |
| 1777836603 | 13.33° C | 56% | 1011.7 hPa | 0 mm | - | - | - |
| 1777836002 | 13.89° C | 53% | 1011.6 hPa | 0 mm | - | - | - |
| 1777835400 | 14.44° C | 53% | 1011.7 hPa | 0 mm | - | - | - |
| 1777834802 | 14.44° C | 51% | 1011.6 hPa | 0 mm | - | - | - |
| 1777834219 | 15° C | 50% | 1011.6 hPa | 0 mm | - | - | - |
| 1777833607 | 15.56° C | 49% | 1011.6 hPa | 0 mm | - | - | - |
| 1777833011 | 15.56° C | 50% | 1011.8 hPa | 0 mm | - | - | - |
| 1777832418 | 15.56° C | 47% | 1011.8 hPa | 0 mm | - | - | - |
| 1777831805 | 15° C | 48% | 1011.9 hPa | 0 mm | - | - | - |
| 1777831207 | 15.56° C | 47% | 1012.2 hPa | 0 mm | - | - | - |
| 1777830608 | 15.56° C | 49% | 1012.1 hPa | 0 mm | - | - | - |
| 1777830017 | 15.56° C | 49% | 1012.1 hPa | 0 mm | - | - | - |
| 1777829403 | 15.56° C | 47% | 1012.4 hPa | 0 mm | - | - | - |
| 1777828842 | 15.56° C | 49% | 1012.5 hPa | 0 mm | - | - | - |
| 1777828201 | 15° C | 49% | 1012.5 hPa | 0 mm | - | - | - |
| 1777827600 | 15.56° C | 50% | 1012.7 hPa | 0 mm | - | - | - |
| 1777827001 | 15° C | 51% | 1012.8 hPa | 0 mm | - | - | - |
| 1777826411 | 15° C | 52% | 1012.8 hPa | 0 mm | - | - | - |
| 1777825816 | 14.44° C | 51% | 1012.8 hPa | 0 mm | - | - | - |
| 1777825200 | 13.89° C | 52% | 1013 hPa | 0 mm | - | - | - |
| 1777824600 | 13.33° C | 53% | 1013.1 hPa | 0 mm | - | - | - |
| 1777824002 | 13.33° C | 51% | 1013.2 hPa | 0 mm | - | - | - |
| 1777823404 | 13.33° C | 52% | 1013.1 hPa | 0 mm | - | - | - |
* Rain latest hour (hover to see other rain measurements)
** Current wind speed in m/s (hover to see current wind gust speed)